Gillette, WY

2:29 PM MST on January 19, 2017 (GMT -0700)
Gillette-Campbell County

Weather History for KGCC - August, 2014

Change the Weather History Date:

Saturday, August 9, 2014

  Actual Average Record
Temperature  
Mean Temperature 67 °F 71 °F  
Max Temperature 82 °F 87 °F 100 °F (1936)
Min Temperature 52 °F 55 °F 40 °F (1948)
Degree Days  
Heating Degree Days 0 1  
Month to date heating degree days 0 6  
Since 1 June heating degree days 205 167  
Since 1 July heating degree days 13 25  
Cooling Degree Days 2 7  
Month to date cooling degree days 52 66  
Year to date cooling degree days 254 348  
Since 1 June cooling degree days 246 340  
Growing Degree Days 18 (Base 50)    
Moisture  
Dew Point 52 °F    
Average Humidity 64    
Maximum Humidity 93    
Minimum Humidity 35    
Precipitation  
Precipitation 0.00 in 0.03 in 0.47 in (1977)
Month to date precipitation 0.27 0.36  
Year to date precipitation 13.38 9.89  
Sea Level Pressure  
Sea Level Pressure 30.01 in    
Wind  
Wind Speed 13 mph (NW)    
Max Wind Speed 29 mph    
Max Gust Speed 35 mph    
Visibility 10 miles    
Events Thunderstorm    
T = Trace of Precipitation, MM = Missing Value Source: NWS Daily Summary

Daily Weather History Graph

Daily Weather History Graph

Search for Another Location

Airport or City:

Trip Planner

Search our weather history database for the weather conditions in past years. The results will help you decide how hot, cold, wet, or windy it might be!

Date:

Astronomy

Aug. 09, 2014 Rise Set
Actual Time 5:58 AM MDT 8:16 PM MDT
Civil Twilight 5:26 AM MDT 8:48 PM MDT
Nautical Twilight 4:46 AM MDT 9:27 PM MDT
Astronomical Twilight 4:01 AM MDT 10:12 PM MDT
Moon 7:18 PM MDT (8/9) 4:42 AM MDT (8/9)
Length of Visible Light 15h 21m
Length of Day
14h 17m
Waxing Gibbous, 98% of the Moon is Illuminated
Aug 9
Waxing Gibbous
Aug 10
Full
Aug 17
Last Quarter
Aug 25
New
Sep 2
First Quarter

Hourly Weather History & Observations

Time (MDT) Temp. Dew Point Humidity Pressure Visibility Wind Dir Wind Speed Gust Speed Precip Events Conditions
12:53 AM 64.9 °F 54.0 °F 68% 29.85 in 10.0 mi South 16.1 mph - N/A   Clear
1:53 AM 64.0 °F 55.0 °F 73% 29.84 in 10.0 mi South 16.1 mph - N/A   Clear
2:53 AM 62.1 °F 55.0 °F 78% 29.84 in 10.0 mi South 17.3 mph 21.9 mph N/A   Clear
3:53 AM 61.0 °F 55.0 °F 81% 29.85 in 10.0 mi South 12.7 mph - N/A   Clear
4:53 AM 59.0 °F 55.9 °F 90% 29.87 in 10.0 mi SSW 5.8 mph - N/A   Clear
5:53 AM 57.2 °F 55.4 °F 94% 30.02 in 10.0 mi Calm Calm - N/A   Clear
6:53 AM 59.0 °F 55.0 °F 87% 29.90 in 10.0 mi Calm Calm - N/A   Clear
7:53 AM 66.9 °F 55.9 °F 68% 29.93 in 10.0 mi WNW 8.1 mph - N/A   Clear
8:53 AM 71.1 °F 48.9 °F 45% 29.94 in 10.0 mi WNW 20.7 mph 25.3 mph N/A   Clear
9:53 AM 73.0 °F 48.0 °F 41% 29.98 in 10.0 mi NW 17.3 mph 25.3 mph N/A   Clear
11:53 AM 78.1 °F 48.9 °F 36% 29.98 in 10.0 mi NW 21.9 mph 31.1 mph N/A   Clear
12:53 PM 78.1 °F 51.1 °F 39% 29.99 in 10.0 mi NNW 23.0 mph 29.9 mph N/A   Partly Cloudy
1:53 PM 78.1 °F 52.0 °F 40% 30.01 in 10.0 mi NW 18.4 mph 33.4 mph N/A   Partly Cloudy
2:53 PM 78.1 °F 50.0 °F 37% 30.02 in 10.0 mi NW 21.9 mph 28.8 mph N/A   Mostly Cloudy
3:53 PM 80.1 °F 51.1 °F 36% 30.01 in 10.0 mi NNW 16.1 mph 27.6 mph N/A   Scattered Clouds
4:50 PM 77.0 °F 50.0 °F 39% 30.15 in 10.0 mi North 23.0 mph 31.1 mph N/A Thunderstorm Mostly Cloudy
4:53 PM 77.0 °F 51.1 °F 40% 30.04 in 10.0 mi North 21.9 mph 29.9 mph N/A Thunderstorm Overcast
5:22 PM 73.4 °F 53.6 °F 50% 30.17 in 10.0 mi North 18.4 mph 26.5 mph N/A   Mostly Cloudy
5:53 PM 73.0 °F 54.0 °F 51% 30.07 in 10.0 mi North 16.1 mph - N/A   Mostly Cloudy
6:53 PM 73.9 °F 53.1 °F 48% 30.06 in 10.0 mi North 16.1 mph - N/A   Partly Cloudy
7:53 PM 70.0 °F 52.0 °F 53% 30.08 in 10.0 mi NNE 17.3 mph - N/A   Scattered Clouds
8:53 PM 62.6 °F 51.8 °F 68% 30.22 in 10.0 mi NNW 5.8 mph - N/A   Clear
9:53 PM 59.0 °F 51.8 °F 77% 30.24 in 10.0 mi NNW 6.9 mph - N/A   Clear
10:53 PM 57.0 °F 52.0 °F 83% 30.14 in 10.0 mi NW 3.5 mph - N/A   Clear
11:53 PM 53.1 °F 51.1 °F 93% 30.16 in 10.0 mi SW 4.6 mph - N/A   Clear